Rock Hill, SC

6:12 PM EDT on July 26, 2017 (GMT -0400)
Rock Hill-York County-Bryant

Weather History for KUZA - June, 2013

Change the Weather History Date:

Sunday, June 23, 2013

  Actual Average Record
Temperature  
Mean Temperature 76 °F -  
Max Temperature 84 °F 88 °F 99 °F (1956)
Min Temperature 69 °F 66 °F 56 °F (1972)
Cooling Degree Days 12    
Growing Degree Days 26 (Base 50)    
Moisture  
Dew Point 70 °F    
Average Humidity 80    
Maximum Humidity 97    
Minimum Humidity 65    
Precipitation  
Precipitation 0.03 in - - ()
Sea Level Pressure  
Sea Level Pressure 30.18 in    
Wind  
Wind Speed 2 mph (SSE)    
Max Wind Speed 8 mph    
Max Gust Speed -    
Visibility 10 miles    
Events Rain , Thunderstorm    
Averages and records for this station are not official NWS values.
T = Trace of Precipitation, MM = Missing Value Source: NWS Daily Summary

Daily Weather History Graph

Daily Weather History Graph

Search for Another Location

Airport or City:

Trip Planner

Search our weather history database for the weather conditions in past years. The results will help you decide how hot, cold, wet, or windy it might be!

Date:

Astronomy

Jun. 23, 2013 Rise Set
Actual Time 6:11 AM EDT 8:41 PM EDT
Civil Twilight 5:41 AM EDT 9:11 PM EDT
Nautical Twilight 5:04 AM EDT 9:48 PM EDT
Astronomical Twilight 4:24 AM EDT 10:28 PM EDT
Moon 8:56 PM EDT (6/23) 6:24 AM EDT (6/23)
Length of Visible Light 15h 30m
Length of Day
14h 30m
Full, 100% of the Moon is Illuminated
Jun 23
Full
Jun 30
Last Quarter
Jul 8
New
Jul 15
First Quarter
Jul 22
Full

Hourly Weather History & Observations

Time (EDT) Temp. Heat Index Dew Point Humidity Pressure Visibility Wind Dir Wind Speed Gust Speed Precip Events Conditions
12:54 AM 73.0 °F - 69.1 °F 87% 30.15 in 10.0 mi Calm Calm - N/A   Clear
1:54 AM 73.0 °F - 69.1 °F 87% 30.14 in 10.0 mi Calm Calm - N/A   Clear
2:54 AM 71.1 °F - 69.1 °F 93% 30.13 in 10.0 mi Calm Calm - N/A   Clear
3:54 AM 71.1 °F - 69.1 °F 93% 30.12 in 10.0 mi Calm Calm - N/A   Clear
4:54 AM 70.0 °F - 69.1 °F 97% 30.13 in 10.0 mi Calm Calm - N/A   Clear
5:54 AM 70.0 °F - 69.1 °F 97% 30.14 in 9.0 mi Calm Calm - N/A   Mostly Cloudy
6:54 AM 69.1 °F - 68.0 °F 96% 30.15 in 9.0 mi Calm Calm - N/A   Clear
7:54 AM 72.0 °F - 69.1 °F 91% 30.18 in 10.0 mi SSW 3.5 mph - N/A   Clear
8:54 AM 75.9 °F - 71.1 °F 85% 30.19 in 10.0 mi SW 5.8 mph - N/A   Clear
9:54 AM 79.0 °F - 71.1 °F 77% 30.19 in 10.0 mi Calm Calm - N/A   Partly Cloudy
10:07 AM 79.0 °F - 71.1 °F 77% 30.23 in 10.0 mi SW 4.6 mph - N/A   Mostly Cloudy
10:46 AM 80.1 °F 83.6 °F 71.1 °F 74% 30.22 in 10.0 mi Calm Calm - N/A   Scattered Clouds
10:54 AM 80.1 °F 83.2 °F 70.0 °F 71% 30.19 in 10.0 mi Variable 4.6 mph - N/A   Scattered Clouds
11:54 AM 82.0 °F 85.9 °F 70.0 °F 67% 30.18 in 10.0 mi Variable 3.5 mph - N/A   Scattered Clouds
12:01 PM 84.0 °F 89.0 °F 71.1 °F 65% 30.22 in 10.0 mi NNW 4.6 mph - N/A   Mostly Cloudy
12:27 PM 82.0 °F 85.9 °F 70.0 °F 67% 30.22 in 10.0 mi Calm Calm - N/A   Mostly Cloudy
12:54 PM 82.0 °F 85.9 °F 70.0 °F 67% 30.17 in 10.0 mi SE 4.6 mph - N/A   Mostly Cloudy
1:08 PM 81.0 °F 84.9 °F 71.1 °F 72% 30.21 in 10.0 mi SE 3.5 mph - 0.00 in Rain , Thunderstorm Light Rain
1:23 PM 78.1 °F - 71.1 °F 79% 30.21 in 9.0 mi Variable 5.8 mph - 0.00 in Rain Light Rain
1:54 PM 82.0 °F 85.5 °F 69.1 °F 65% 30.17 in 10.0 mi East 5.8 mph - 0.00 in Thunderstorm Thunderstorm
2:07 PM 80.1 °F 82.7 °F 68.0 °F 67% 30.20 in 10.0 mi Calm Calm - N/A   Mostly Cloudy
2:54 PM 81.0 °F 86.7 °F 75.0 °F 82% 30.15 in 9.0 mi North 5.8 mph - 0.02 in Rain Light Rain
3:54 PM - - - N/A% 30.16 in - Variable 4.6 mph - 0.00 in   Mostly Cloudy
4:54 PM - - - N/A% 30.15 in - Variable 5.8 mph - N/A   Partly Cloudy
5:54 PM - - - N/A% 30.16 in - SSE 8.1 mph - N/A   Scattered Clouds
6:54 PM - - - N/A% 30.16 in - Calm Calm - N/A   Clear
7:54 PM - - - N/A% 30.15 in - Calm Calm - 0.01 in   Scattered Clouds
8:54 PM - - - N/A% 30.18 in - Calm Calm - N/A   Clear
9:54 PM - - - N/A% 30.19 in - Calm Calm - N/A   Partly Cloudy
10:54 PM - - - N/A% 30.20 in - Calm Calm - N/A   Clear
11:54 PM - - - N/A% 30.20 in - Calm Calm - N/A   Partly Cloudy